Flag for Sudan Weather past 2 weeks in Khartoum, Sudan

Now
95 °F

Clear.


Feels Like: 91 °F
Forecast: 77 / 101 °F
Wind: 14 mph from North

Location: Khartoum Airport

Current Time: Mar 3, 2015 at 8:11:05 PM

Latest Report: Mar 3, 2015 at 8:00 PM


Visibility: 10 mi

Pressure: 29.77 "Hg

Humidity: 18%

Dew point: 45 °F

Location of KhartoumLocation

Historic Weather in Khartoum — Graph

°F

Khartoum temperature yesterday

Maximum temperature yesterday: 104 °F (at 4:00 PM)
Minimum temperature yesterday: 81 °F (at 6:00 AM)
Average temperature yesterday: 91 °F

Past Weeks' High & Low Weather Summary

 TemperatureHumidityPressure
High106 °F (Feb 27, 3:00 PM)35% (Mar 3, 10:00 AM)30.01 "Hg (Mar 3, 10:00 AM)
Low61 °F (Feb 21, 8:00 AM)1% (Feb 25, 2:00 PM)29.68 "Hg (Feb 22, 9:30 AM)
Average85 °F15%29.83 "Hg
* Reported Feb 16 7:00 PM — Mar 3 7:00 PM, Khartoum, Weather by CustomWeather, © 2015

Note: Actual official high and low records may vary slightly from our data, if they occured in-between our weather recording intervals... More about our weather records

Advertising

Khartoum weather history for previous 24 hours

 ConditionsComfort  
Time TempWeatherWind HumidityBarometerVisibility
7:00 PM
Tue, Mar 3
97 °FClear.14 mph16%29.77 "Hg10 mi
6:30 PMN/ASunny.16 mphN/A29.77 "Hg10 mi
6:00 PM97 °FSunny.10 mph17%29.77 "Hg10 mi
5:30 PMN/ASunny.14 mphN/A29.74 "Hg10 mi
5:00 PM100 °FSunny.12 mph15%29.74 "Hg10 mi
4:30 PMN/ASunny.7 mphN/A29.74 "Hg10 mi
4:00 PM100 °FSunny.12 mph15%29.74 "Hg10 mi
3:30 PMN/A12 mphN/A29.74 "HgN/A
2:30 PMN/ASunny.10 mphN/A29.77 "Hg10 mi
2:00 PM100 °FSunny.13 mph16%29.77 "Hg10 mi
1:30 PMN/ASunny.14 mphN/A29.80 "Hg10 mi
1:00 PM97 °FSunny.14 mph22%N/A10 mi
12:30 PMN/ASunny.12 mphN/A29.83 "Hg10 mi
12:00 PM91 °FHaze.10 mph26%29.83 "Hg5 mi
11:30 AMN/AHaze.8 mphN/A29.86 "Hg5 mi
11:00 AM88 °FHaze.9 mph31%29.86 "Hg5 mi
10:00 AM84 °FHaze.12 mph35%29.86 "Hg4 mi
9:30 AMN/A8 mphN/A29.86 "Hg2 mi
9:00 AM81 °FHaze.6 mph32%29.80 "Hg2 mi
8:30 AMN/AHaze.6 mphN/A29.83 "Hg2 mi
8:00 AM79 °FPleasantly warm.6 mph26%29.83 "Hg4 mi
7:30 AMN/A7 mphN/A29.80 "Hg4 mi
7:00 AM81 °FClear.9 mph21%29.77 "Hg10 mi
6:30 AMN/AClear.10 mphN/A29.74 "Hg10 mi
6:00 AM82 °FClear.10 mph19%29.74 "Hg10 mi
5:30 AMN/AClear.10 mphN/A29.74 "Hg10 mi
5:00 AM84 °FClear.10 mph16%29.74 "Hg10 mi
4:30 AMN/AClear.9 mphN/A29.74 "Hg10 mi
4:00 AM84 °FClear.9 mph20%29.74 "Hg10 mi
3:30 AMN/AClear.8 mphN/A29.77 "Hg10 mi
3:00 AM84 °FClear.9 mph20%29.77 "Hg10 mi
2:30 AMN/AClear.8 mphN/A29.77 "Hg10 mi
2:00 AM86 °FClear.7 mph22%29.77 "Hg10 mi
1:30 AMN/AClear.9 mphN/A29.77 "Hg10 mi
12:30 AMN/AClear.8 mphN/A29.80 "Hg10 mi
12:00 AM90 °FClear.6 mph21%29.80 "Hg10 mi
11:30 PM
Mon, Mar 2
N/AClear.3 mphN/A29.80 "Hg10 mi
11:00 PM91 °FClear.6 mph17%29.80 "Hg10 mi
10:30 PMN/AClear.9 mphN/A29.77 "Hg10 mi
10:00 PM93 °FClear.8 mph16%29.77 "Hg10 mi
9:30 PMN/AClear.8 mphN/A29.77 "Hg10 mi
9:00 PM93 °FClear.9 mph20%29.77 "Hg10 mi
8:00 PM97 °FClear.8 mph16%29.74 "Hg10 mi
Weather by CustomWeather, © 2015

See weather overviewHow to use our weather pages